Dades meteomassalio
Diari Summary for Juliol 29, 2017 Units:  English    Metric   Both
« Previous Day
Next Day »
Diari Semanal Mensual Anual Personalitzat
  Maxima: Minima: Mijana:
Temperatura: TemperatureC °F 19.3 °F 27 °F
Rosada: DewpointC °F 15.7 °F 19.6 °F
Humitat: Humidity % 43 % 65 %
Velocitat del vent: WindSpeedKMH mph 0.0 mph 4.3 mph
Racha vent: WindSpeedGustKMH mph - -
Vent:- - East
Pressio: PressurehPa in 1010.7 in -
Pluja: 0.0 in    
Historical Graphs
 
 
Tabular Data for Juliol 29, 2017
Time Temperature Dew Point Pressure Wind Wind Speed Wind Gust Humidity Rainfall Rate (Hourly) solar Conditions
TemperatureC °F DewpointC °F PressurehPa in Calm     Humidity % HourlyPrecipMM in SolarRadiationWatts/m^2 W/m2 Conditions
00:04 25.2 °F 19.3 °F 1013.8 in Calm     70 % 0.0 in 0.0 W/m2 CLR
00:09 25.0 °F 19.2 °F 1013.8 in Calm     70 % 0.0 in 0.0 W/m2 CLR
00:14 24.9 °F 19.3 °F 1013.8 in Calm     71 % 0.0 in 0.0 W/m2 CLR
00:19 24.7 °F 19.3 °F 1013.8 in Calm     72 % 0.0 in 0.0 W/m2 CLR
00:24 24.7 °F 19.3 °F 1013.8 in Calm     72 % 0.0 in 0.0 W/m2 CLR
00:29 24.7 °F 19.3 °F 1013.8 in Calm     72 % 0.0 in 0.0 W/m2 CLR
00:34 24.6 °F 19.4 °F 1013.8 in Calm     73 % 0.0 in 0.0 W/m2 CLR
00:39 24.5 °F 19.3 °F 1013.8 in Calm     73 % 0.0 in 0.0 W/m2 CLR
00:44 24.4 °F 19.5 °F 1013.8 in Calm     74 % 0.0 in 0.0 W/m2 CLR
00:49 24.3 °F 19.4 °F 1013.8 in Calm     74 % 0.0 in 0.0 W/m2 CLR
00:59 24.1 °F 19.6 °F 1013.8 in Calm     76 % 0.0 in 0.0 W/m2 CLR
01:04 24.0 °F 19.3 °F 1013.8 in Calm     75 % 0.0 in 0.0 W/m2 CLR
01:09 23.9 °F 18.9 °F 1013.8 in Calm     74 % 0.0 in 0.0 W/m2 CLR
01:14 23.7 °F 18.6 °F 1013.8 in Calm     73 % 0.0 in 0.0 W/m2 CLR
01:19 23.5 °F 18.4 °F 1013.8 in Calm     73 % 0.0 in 0.0 W/m2 CLR
01:24 23.4 °F 18.5 °F 1013.8 in Calm     74 % 0.0 in 0.0 W/m2 CLR
01:29 23.3 °F 18.4 °F 1013.8 in Calm     74 % 0.0 in 0.0 W/m2 CLR
01:34 23.2 °F 18.5 °F 1013.8 in Calm     75 % 0.0 in 0.0 W/m2 CLR
01:39 23.1 °F 18.6 °F 1013.4 in Calm     76 % 0.0 in 0.0 W/m2 CLR
01:44 23.1 °F 18.6 °F 1013.8 in Calm     76 % 0.0 in 0.0 W/m2 CLR
01:49 23.0 °F 18.6 °F 1013.8 in Calm     76 % 0.0 in 0.0 W/m2 CLR
01:54 22.9 °F 18.7 °F 1013.4 in Calm     77 % 0.0 in 0.0 W/m2 CLR
01:59 22.8 °F 18.6 °F 1013.8 in Calm     77 % 0.0 in 0.0 W/m2 CLR
02:04 22.7 °F 18.4 °F 1013.8 in Calm     77 % 0.0 in 0.0 W/m2 CLR
02:09 22.6 °F 18.5 °F 1013.8 in Calm     78 % 0.0 in 0.0 W/m2 CLR
02:14 22.4 °F 18.4 °F 1013.8 in Calm     78 % 0.0 in 0.0 W/m2 CLR
02:19 22.3 °F 18.7 °F 1013.8 in Calm     80 % 0.0 in 0.0 W/m2 CLR
02:24 22.4 °F 18.9 °F 1013.8 in Calm     81 % 0.0 in 0.0 W/m2 CLR
02:29 22.4 °F 18.8 °F 1013.8 in Calm     80 % 0.0 in 0.0 W/m2 CLR
02:34 22.3 °F 18.3 °F 1013.8 in Calm     78 % 0.0 in 0.0 W/m2 CLR
02:39 22.2 °F 18.4 °F 1014.1 in Calm     79 % 0.0 in 0.0 W/m2 CLR
02:44 22.1 °F 18.1 °F 1013.8 in Calm     78 % 0.0 in 0.0 W/m2 CLR
02:49 22.0 °F 18.2 °F 1013.8 in Calm     79 % 0.0 in 0.0 W/m2 CLR
02:54 21.9 °F 18.1 °F 1013.8 in Calm     79 % 0.0 in 0.0 W/m2 CLR
02:59 21.7 °F 18.1 °F 1013.8 in Calm     80 % 0.0 in 0.0 W/m2 CLR
03:04 21.7 °F 18.3 °F 1013.8 in Calm     81 % 0.0 in 0.0 W/m2 CLR
03:09 21.6 °F 18.2 °F 1013.8 in Calm     81 % 0.0 in 0.0 W/m2 CLR
03:15 21.4 °F 18.2 °F 1013.8 in Calm     82 % 0.0 in 0.0 W/m2 CLR
03:20 21.4 °F 18.4 °F 1013.8 in Calm     83 % 0.0 in 0.0 W/m2 CLR
03:24 21.3 °F 18.1 °F 1013.8 in Calm     82 % 0.0 in 0.0 W/m2 CLR
03:29 21.3 °F 18.3 °F 1013.8 in Calm     83 % 0.0 in 0.0 W/m2 CLR
03:35 21.2 °F 18.2 °F 1013.8 in Calm     83 % 0.0 in 0.0 W/m2 CLR
03:40 21.2 °F 18.4 °F 1013.8 in Calm     84 % 0.0 in 0.0 W/m2 CLR
03:45 21.1 °F 18.1 °F 1013.8 in Calm     83 % 0.0 in 0.0 W/m2 CLR
03:50 20.9 °F 17.8 °F 1013.8 in Calm     82 % 0.0 in 0.0 W/m2 CLR
03:55 20.9 °F 17.7 °F 1013.8 in Calm     82 % 0.0 in 0.0 W/m2 CLR
04:00 20.8 °F 17.7 °F 1013.8 in Calm     82 % 0.0 in 0.0 W/m2 CLR
04:05 20.7 °F 17.7 °F 1013.8 in Calm     83 % 0.0 in 0.0 W/m2 CLR
04:10 20.7 °F 17.7 °F 1013.8 in Calm     83 % 0.0 in 0.0 W/m2 CLR
04:15 20.6 °F 17.6 °F 1013.8 in Calm     83 % 0.0 in 0.0 W/m2 CLR
04:20 20.6 °F 17.4 °F 1013.8 in Calm     82 % 0.0 in 0.0 W/m2 CLR
04:25 20.6 °F 17.4 °F 1013.8 in Calm     82 % 0.0 in 0.0 W/m2 CLR
04:30 20.6 °F 17.4 °F 1013.8 in Calm     82 % 0.0 in 0.0 W/m2 CLR
04:35 20.5 °F 17.3 °F 1013.8 in Calm     82 % 0.0 in 0.0 W/m2 CLR
04:40 20.4 °F 17.4 °F 1013.8 in Calm     83 % 0.0 in 0.0 W/m2 CLR
04:45 20.4 °F 17.4 °F 1014.1 in Calm     83 % 0.0 in 0.0 W/m2 CLR
04:50 20.4 °F 17.4 °F 1014.1 in Calm     83 % 0.0 in 0.0 W/m2 CLR
04:55 20.4 °F 17.4 °F 1013.8 in Calm     83 % 0.0 in 0.0 W/m2 CLR
05:00 20.4 °F 17.4 °F 1013.8 in Calm     83 % 0.0 in 0.0 W/m2 CLR
05:05 20.4 °F 17.3 °F 1014.1 in Calm     82 % 0.0 in 0.0 W/m2 CLR
05:10 20.4 °F 17.2 °F 1013.8 in Calm     82 % 0.0 in 0.0 W/m2 CLR
05:15 20.4 °F 17.4 °F 1014.1 in Calm     83 % 0.0 in 0.0 W/m2 CLR
05:20 20.3 °F 17.2 °F 1014.1 in Calm     82 % 0.0 in 0.0 W/m2 CLR
05:25 20.3 °F 17.2 °F 1014.1 in Calm     82 % 0.0 in 0.0 W/m2 CLR
05:30 20.2 °F 17.1 °F 1014.1 in Calm     82 % 0.0 in 0.0 W/m2 CLR
05:35 20.2 °F 17.2 °F 1014.1 in Calm     83 % 0.0 in 0.0 W/m2 CLR
05:40 20.1 °F 17.1 °F 1014.1 in Calm     83 % 0.0 in 0.0 W/m2 CLR
05:45 20.0 °F 17.0 °F 1014.1 in Calm     83 % 0.0 in 0.0 W/m2 CLR
05:50 19.9 °F 17.2 °F 1014.1 in Calm     84 % 0.0 in 0.0 W/m2 CLR
05:55 19.9 °F 17.3 °F 1014.1 in Calm     85 % 0.0 in 0.0 W/m2 CLR
06:00 19.8 °F 17.2 °F 1014.1 in Calm     85 % 0.0 in 0.0 W/m2 CLR
06:05 19.7 °F 17.3 °F 1014.1 in Calm     86 % 0.0 in 0.0 W/m2 CLR
06:10 19.7 °F 17.3 °F 1014.1 in Calm     86 % 0.0 in 0.0 W/m2 CLR
06:15 19.7 °F 17.3 °F 1014.1 in Calm     86 % 0.0 in 0.0 W/m2 CLR
06:20 19.6 °F 17.2 °F 1014.1 in Calm     86 % 0.0 in 0.0 W/m2 CLR
06:25 19.6 °F 17.2 °F 1014.1 in Calm     86 % 0.0 in 0.0 W/m2 CLR
06:30 19.6 °F 17.2 °F 1014.1 in Calm     86 % 0.0 in 0.0 W/m2 CLR
06:35 19.5 °F 17.1 °F 1014.1 in Calm     86 % 0.0 in 0.0 W/m2 CLR
06:40 19.4 °F 17.1 °F 1014.4 in Calm     86 % 0.0 in 0.0 W/m2 CLR
06:45 19.3 °F 16.9 °F 1014.4 in Calm     86 % 0.0 in 0.0 W/m2 OVC
06:50 19.3 °F 16.9 °F 1014.4 in Calm     86 % 0.0 in 0.0 W/m2 OVC
06:55 19.3 °F 16.7 °F 1014.4 in Calm     85 % 0.0 in 0.0 W/m2 OVC
07:00 19.3 °F 16.9 °F 1014.4 in Calm     86 % 0.0 in 7.0 W/m2 BKN
07:05 19.3 °F 16.9 °F 1014.4 in Calm     86 % 0.0 in 11.0 W/m2 BKN
07:10 19.3 °F 17.1 °F 1014.4 in Calm     87 % 0.0 in 12.0 W/m2 BKN
07:15 19.3 °F 17.1 °F 1014.4 in Calm     87 % 0.0 in 16.0 W/m2 BKN
07:17 19.3 °F 17.1 °F 1014.4 in Calm     87 % 0.0 in 18.0 W/m2 BKN
07:22 19.3 °F 17.1 °F 1014.4 in Calm     87 % 0.0 in 23.0 W/m2 BKN
07:27 19.3 °F 17.1 °F 1014.4 in Calm     87 % 0.0 in 28.0 W/m2 BKN
07:32 19.4 °F 17.2 °F 1014.4 in Calm     87 % 0.0 in 33.0 W/m2 BKN
07:42 19.5 °F 17.1 °F 1014.8 in Calm     86 % 0.0 in 53.0 W/m2 SCT
07:47 19.7 °F 17.3 °F 1014.8 in Calm     86 % 0.0 in 62.0 W/m2 SCT
07:52 19.8 °F 17.2 °F 1014.8 in Calm     85 % 0.0 in 70.0 W/m2 FEW
07:57 20.1 °F 17.3 °F 1014.8 in Calm     84 % 0.0 in 83.0 W/m2 FEW
08:02 20.3 °F 17.6 °F 1014.8 in Calm     84 % 0.0 in 98.0 W/m2 FEW
08:07 20.6 °F 17.6 °F 1014.8 in Calm     83 % 0.0 in 113.0 W/m2 CLR
08:12 20.8 °F 17.8 °F 1014.8 in Calm     83 % 0.0 in 127.0 W/m2 CLR
08:17 21.2 °F 17.8 °F 1014.8 in Calm     81 % 0.0 in 141.0 W/m2 CLR
08:22 21.6 °F 18.2 °F 1014.8 in Calm     81 % 0.0 in 160.0 W/m2 CLR
08:27 22.0 °F 18.4 °F 1014.8 in Calm     80 % 0.0 in 176.0 W/m2 CLR
08:32 22.4 °F 18.6 °F 1014.8 in Calm     79 % 0.0 in 190.0 W/m2 CLR
08:37 22.7 °F 18.7 °F 1014.8 in Calm     78 % 0.0 in 206.0 W/m2 CLR
08:42 23.0 °F 18.7 °F 1014.8 in Calm     77 % 0.0 in 220.0 W/m2 CLR
08:47 23.3 °F 18.8 °F 1014.8 in Calm     76 % 0.0 in 239.0 W/m2 CLR
08:52 23.5 °F 19.0 °F 1014.8 in Calm     76 % 0.0 in 257.0 W/m2 CLR
08:57 23.9 °F 18.9 °F 1014.8 in Calm     74 % 0.0 in 272.0 W/m2 CLR
09:02 24.4 °F 19.4 °F 1014.8 in Calm     74 % 0.0 in 288.0 W/m2 CLR
09:07 24.9 °F 19.7 °F 1014.8 in Calm     73 % 0.0 in 308.0 W/m2 CLR
09:12 25.4 °F 19.7 °F 1015.1 in Calm     71 % 0.0 in 322.0 W/m2 CLR
09:17 25.7 °F 19.8 °F 1014.8 in Calm     70 % 0.0 in 336.0 W/m2 CLR
09:22 25.9 °F 20.0 °F 1014.8 in Calm     70 % 0.0 in 352.0 W/m2 CLR
09:27 26.1 °F 19.9 °F 1014.8 in Calm     69 % 0.0 in 367.0 W/m2 CLR
09:32 26.2 °F 20.1 °F 1014.8 in Calm     69 % 0.0 in 383.0 W/m2 CLR
09:42 26.5 °F 17.3 °F 1014.8 in Calm     57 % 0.0 in 413.0 W/m2 CLR
09:47 26.6 °F 15.7 °F 1014.8 in Calm     51 % 0.0 in 431.0 W/m2 CLR
09:49 26.8 °F 16.4 °F 1015.1 in Calm     53 % 0.0 in 350.0 W/m2 CLR
09:54 27.2 °F 16.8 °F 1015.1 in Calm     53 % 0.0 in 102.0 W/m2 CLR
09:59 27.6 °F 16.9 °F 1015.1 in Calm     52 % 0.0 in 471.0 W/m2 CLR
10:04 27.6 °F 17.4 °F 1015.1 in Calm     54 % 0.0 in 483.0 W/m2 CLR
10:09 27.7 °F 16.3 °F 1015.1 in NNE 3.7 mph 3.7 mph 50 % 0.0 in 499.0 W/m2 CLR
10:14 27.8 °F 16.8 °F 1015.1 in Calm   0.2 mph 51 % 0.0 in 512.0 W/m2 CLR
10:19 27.9 °F 16.5 °F 1015.1 in Calm     50 % 0.0 in 526.0 W/m2 CLR
10:24 28.0 °F 16.9 °F 1015.1 in ENE 5.6 mph 5.6 mph 51 % 0.0 in 541.0 W/m2 CLR
10:30 28.1 °F 16.4 °F 1015.1 in Calm     49 % 0.0 in 555.0 W/m2 CLR
10:34 28.0 °F 16.3 °F 1015.1 in East 1.9 mph 1.9 mph 49 % 0.0 in 566.0 W/m2 CLR
10:40 28.2 °F 16.2 °F 1015.1 in Calm   0.8 mph 48 % 0.0 in 582.0 W/m2 CLR
10:45 28.4 °F 16.1 °F 1015.1 in Calm     47 % 0.0 in 592.0 W/m2 CLR
10:50 28.7 °F 16.6 °F 1014.8 in East 1.9 mph   48 % 0.0 in 612.0 W/m2 CLR
10:55 28.7 °F 17.6 °F 1014.8 in ENE 5.6 mph 5.6 mph 51 % 0.0 in 622.0 W/m2 CLR
11:00 28.5 °F 18.0 °F 1014.8 in ENE 7.4 mph 7.4 mph 53 % 0.0 in 636.0 W/m2 CLR
11:05 28.5 °F 18.0 °F 1014.8 in Calm     53 % 0.0 in 647.0 W/m2 CLR
11:10 28.8 °F 18.3 °F 1014.8 in NNE 1.9 mph   53 % 0.0 in 663.0 W/m2 CLR
11:15 29.1 °F 18.2 °F 1014.8 in NNW 5.6 mph   52 % 0.0 in 670.0 W/m2 CLR
11:20 29.2 °F 18.6 °F 1014.8 in NE 3.7 mph 3.7 mph 53 % 0.0 in 680.0 W/m2 CLR
11:25 29.3 °F 18.4 °F 1014.8 in Calm     52 % 0.0 in 691.0 W/m2 CLR
11:26 29.2 °F 18.7 °F 1014.8 in NNE 1.9 mph 1.9 mph 53 % 0.0 in 696.0 W/m2 CLR
11:31 29.2 °F 18.9 °F 1014.8 in Calm     54 % 0.0 in 705.0 W/m2 CLR
11:36 29.2 °F 19.3 °F 1014.8 in East 7.4 mph 7.4 mph 55 % 0.0 in 715.0 W/m2 CLR
11:41 29.3 °F 19.3 °F 1014.8 in ENE 9.7 mph 9.7 mph 55 % 0.0 in 722.0 W/m2 CLR
11:46 29.3 °F 19.0 °F 1014.8 in ESE 5.6 mph 5.6 mph 54 % 0.0 in 738.0 W/m2 CLR
11:51 29.3 °F 19.7 °F 1014.8 in Calm     56 % 0.0 in 745.0 W/m2 CLR
11:56 29.8 °F 19.5 °F 1014.8 in NE 5.6 mph 5.6 mph 54 % 0.0 in 754.0 W/m2 CLR
12:01 30.2 °F 19.6 °F 1014.4 in Calm     53 % 0.0 in 766.0 W/m2 CLR
12:06 30.3 °F 19.4 °F 1014.4 in NE 13.0 mph 13.0 mph 52 % 0.0 in 772.0 W/m2 CLR
12:11 30.2 °F 19.3 °F 1014.4 in Calm     52 % 0.0 in 784.0 W/m2 CLR
12:16 30.2 °F 19.3 °F 1014.4 in Calm     52 % 0.0 in 793.0 W/m2 CLR
12:21 30.5 °F 19.8 °F 1014.4 in ENE 11.1 mph 11.1 mph 53 % 0.0 in 803.0 W/m2 CLR
12:26 30.6 °F 19.9 °F 1014.1 in North 5.6 mph 5.6 mph 53 % 0.0 in 810.0 W/m2 CLR
12:31 30.8 °F 20.4 °F 1014.1 in North 3.7 mph 3.7 mph 54 % 0.0 in 817.0 W/m2 CLR
12:36 30.8 °F 20.2 °F 1014.1 in North 7.4 mph 7.4 mph 53 % 0.0 in 824.0 W/m2 CLR
12:41 30.8 °F 20.2 °F 1014.1 in NNE 9.3 mph 9.3 mph 53 % 0.0 in 833.0 W/m2 CLR
12:46 31.1 °F 20.7 °F 1013.8 in NE 7.4 mph 7.4 mph 54 % 0.0 in 838.0 W/m2 CLR
12:51 31.3 °F 20.6 °F 1013.8 in ENE 9.3 mph 9.3 mph 53 % 0.0 in 844.0 W/m2 CLR
12:56 31.2 °F 20.5 °F 1013.8 in NNE 5.6 mph 5.6 mph 53 % 0.0 in 851.0 W/m2 CLR
13:01 31.4 °F 20.7 °F 1013.8 in ENE 5.6 mph 5.6 mph 53 % 0.0 in 860.0 W/m2 CLR
13:06 31.6 °F 20.5 °F 1013.8 in NW 5.6 mph 5.6 mph 52 % 0.0 in 863.0 W/m2 CLR
13:11 31.6 °F 20.6 °F 1013.4 in ENE 9.3 mph 9.3 mph 52 % 0.0 in 867.0 W/m2 CLR
13:16 31.9 °F 20.8 °F 1013.4 in Calm     52 % 0.0 in 874.0 W/m2 CLR
13:21 32.2 °F 20.8 °F 1013.4 in Calm     51 % 0.0 in 879.0 W/m2 CLR
13:22 32.3 °F 20.6 °F 1013.4 in ENE 4.8 mph 4.8 mph 50 % 0.0 in 881.0 W/m2 CLR
13:27 32.6 °F 20.5 °F 1013.4 in ENE 11.1 mph 11.1 mph 49 % 0.0 in 884.0 W/m2 CLR
13:32 32.6 °F 20.2 °F 1013.4 in ENE 5.6 mph 5.6 mph 48 % 0.0 in 886.0 W/m2 CLR
13:37 32.7 °F 20.6 °F 1013.1 in NE 13.0 mph 13.0 mph 49 % 0.0 in 889.0 W/m2 CLR
13:42 33.0 °F 20.6 °F 1013.1 in NE 13.0 mph 13.0 mph 48 % 0.0 in 891.0 W/m2 CLR
13:47 33.2 °F 20.3 °F 1013.1 in NE 11.1 mph 11.1 mph 47 % 0.0 in 891.0 W/m2 CLR
13:52 33.2 °F 20.3 °F 1013.1 in East 7.4 mph 7.4 mph 47 % 0.0 in 893.0 W/m2 CLR
13:57 33.1 °F 20.3 °F 1013.1 in ENE 12.9 mph 12.9 mph 47 % 0.0 in 895.0 W/m2 CLR
14:02 33.1 °F 20.3 °F 1013.1 in NE 5.6 mph 5.6 mph 47 % 0.0 in 896.0 W/m2 CLR
14:07 33.5 °F 21.0 °F 1012.8 in NE 9.3 mph 9.3 mph 48 % 0.0 in 893.0 W/m2 CLR
14:12 33.7 °F 20.8 °F 1013.1 in Calm     47 % 0.0 in 895.0 W/m2 CLR
14:17 34.2 °F 20.6 °F 1012.8 in North 14.8 mph 14.8 mph 45 % 0.0 in 895.0 W/m2 CLR
14:22 34.1 °F 20.4 °F 1012.8 in North 1.9 mph 1.9 mph 45 % 0.0 in 891.0 W/m2 CLR
14:27 34.2 °F 20.6 °F 1012.8 in Calm   0.5 mph 45 % 0.0 in 886.0 W/m2 CLR
14:32 34.3 °F 19.9 °F 1012.8 in NE 13.0 mph 13.0 mph 43 % 0.0 in 888.0 W/m2 CLR
14:37 34.3 °F 20.3 °F 1012.4 in NE 5.6 mph 5.6 mph 44 % 0.0 in 888.0 W/m2 CLR
14:42 34.4 °F 20.1 °F 1012.4 in ENE 11.1 mph 11.1 mph 43 % 0.0 in 884.0 W/m2 CLR
14:47 34.4 °F 20.4 °F 1012.4 in East 16.7 mph 16.7 mph 44 % 0.0 in 879.0 W/m2 CLR
14:52 34.3 °F 20.3 °F 1012.4 in Calm     44 % 0.0 in 875.0 W/m2 CLR
14:57 34.2 °F 20.6 °F 1012.4 in SE 9.3 mph 9.3 mph 45 % 0.0 in 872.0 W/m2 CLR
14:58 34.2 °F 20.6 °F 1012.1 in ENE 11.1 mph 11.1 mph 45 % 0.0 in 870.0 W/m2 CLR
15:03 34.3 °F 21.4 °F 1012.1 in ESE 16.7 mph 16.7 mph 47 % 0.0 in 867.0 W/m2 CLR
15:08 34.2 °F 21.3 °F 1012.1 in East 18.5 mph 18.5 mph 47 % 0.0 in 868.0 W/m2 CLR
15:13 33.9 °F 21.0 °F 1012.1 in NNE 11.1 mph 11.1 mph 47 % 0.0 in 837.0 W/m2 CLR
15:18 33.9 °F 21.0 °F 1012.1 in NE 1.9 mph 1.9 mph 47 % 0.0 in 884.0 W/m2 CLR
15:23 34.1 °F 21.6 °F 1012.1 in East 14.8 mph 14.8 mph 48 % 0.0 in 824.0 W/m2 CLR
15:28 34.1 °F 21.6 °F 1012.1 in East 18.5 mph 18.5 mph 48 % 0.0 in 821.0 W/m2 CLR
15:33 34.1 °F 21.9 °F 1012.1 in East 18.5 mph 18.5 mph 49 % 0.0 in 872.0 W/m2 CLR
15:38 34.0 °F 21.8 °F 1012.1 in ENE 14.8 mph 14.8 mph 49 % 0.0 in 874.0 W/m2 CLR
15:44 34.3 °F 21.7 °F 1012.1 in East 11.1 mph 11.1 mph 48 % 0.0 in 849.0 W/m2 CLR
15:54 34.2 °F 22.0 °F 1011.7 in ENE 18.5 mph 18.5 mph 49 % 0.0 in 807.0 W/m2 CLR
15:59 34.2 °F 22.0 °F 1011.7 in East 18.5 mph 18.5 mph 49 % 0.0 in 824.0 W/m2 CLR
16:04 34.1 °F 22.2 °F 1011.7 in ENE 18.5 mph 18.5 mph 50 % 0.0 in 807.0 W/m2 CLR
16:14 34.0 °F 22.4 °F 1011.7 in East 20.9 mph 20.9 mph 51 % 0.0 in 812.0 W/m2 CLR
16:19 33.7 °F 22.2 °F 1011.7 in ESE 14.5 mph 14.5 mph 51 % 0.0 in 779.0 W/m2 CLR
16:24 33.7 °F 22.4 °F 1011.7 in SE 20.4 mph 20.4 mph 52 % 0.0 in 756.0 W/m2 CLR
16:29 33.7 °F 22.4 °F 1011.7 in ESE 14.8 mph 14.8 mph 52 % 0.0 in 738.0 W/m2 CLR
16:34 33.5 °F 22.3 °F 1011.7 in ESE 18.5 mph 18.5 mph 52 % 0.0 in 724.0 W/m2 CLR
16:39 33.7 °F 22.2 °F 1011.7 in SE 18.5 mph 18.5 mph 51 % 0.0 in 712.0 W/m2 CLR
16:44 33.7 °F 21.8 °F 1011.4 in East 18.5 mph 18.5 mph 50 % 0.0 in 703.0 W/m2 CLR
16:49 33.6 °F 21.7 °F 1011.7 in ESE 16.1 mph 16.1 mph 50 % 0.0 in 694.0 W/m2 CLR
16:54 33.6 °F 21.8 °F 1011.4 in ESE 11.1 mph 11.1 mph 50 % 0.0 in 679.0 W/m2 CLR
16:59 33.9 °F 21.7 °F 1011.4 in ESE 16.7 mph 16.7 mph 49 % 0.0 in 671.0 W/m2 CLR
17:09 34.3 °F 21.3 °F 1011.4 in ESE 16.7 mph 16.7 mph 47 % 0.0 in 656.0 W/m2 CLR
17:14 34.1 °F 21.9 °F 1011.4 in East 14.5 mph 14.5 mph 49 % 0.0 in 659.0 W/m2 CLR
17:19 33.9 °F 21.7 °F 1011.4 in East 14.8 mph 14.8 mph 49 % 0.0 in 190.0 W/m2 CLR
17:24 33.7 °F 21.8 °F 1011.4 in East 16.7 mph 16.7 mph 50 % 0.0 in 698.0 W/m2 CLR
17:29 33.8 °F 21.6 °F 1011.4 in SE 14.8 mph 14.8 mph 49 % 0.0 in 670.0 W/m2 CLR
17:34 33.7 °F 21.8 °F 1011.1 in East 16.7 mph 16.7 mph 50 % 0.0 in 214.0 W/m2 CLR
17:39 33.6 °F 22.0 °F 1011.1 in East 16.7 mph 16.7 mph 51 % 0.0 in 232.0 W/m2 CLR
17:44 33.4 °F 21.9 °F 1011.1 in East 14.5 mph 14.5 mph 51 % 0.0 in 283.0 W/m2 CLR
17:49 33.3 °F 22.2 °F 1011.1 in ESE 11.1 mph 11.1 mph 52 % 0.0 in 278.0 W/m2 CLR
17:54 33.4 °F 22.2 °F 1011.4 in ESE 14.5 mph 14.5 mph 52 % 0.0 in 271.0 W/m2 CLR
17:59 33.3 °F 21.4 °F 1011.1 in SE 18.5 mph 18.5 mph 50 % 0.0 in 323.0 W/m2 CLR
18:04 33.2 °F 21.1 °F 1011.1 in SE 18.5 mph 18.5 mph 49 % 0.0 in 278.0 W/m2 CLR
18:14 32.9 °F 21.8 °F 1011.1 in ESE 18.5 mph 18.5 mph 52 % 0.0 in 274.0 W/m2 CLR
18:19 32.7 °F 21.6 °F 1011.1 in ESE 13.0 mph 13.0 mph 52 % 0.0 in 202.0 W/m2 CLR
18:24 32.6 °F 21.4 °F 1011.1 in East 13.0 mph 13.0 mph 52 % 0.0 in 225.0 W/m2 CLR
18:29 32.6 °F 21.7 °F 1011.1 in East 14.8 mph 14.8 mph 53 % 0.0 in 336.0 W/m2 CLR
18:34 32.5 °F 21.7 °F 1011.1 in East 11.3 mph 11.3 mph 53 % 0.0 in 139.0 W/m2 CLR
18:39 32.3 °F 21.6 °F 1011.1 in ESE 16.7 mph 16.7 mph 53 % 0.0 in 146.0 W/m2 CLR
18:44 32.2 °F 21.7 °F 1011.1 in East 11.1 mph 11.1 mph 54 % 0.0 in 146.0 W/m2 CLR
18:49 32.1 °F 21.9 °F 1010.7 in ESE 11.1 mph 11.1 mph 55 % 0.0 in 174.0 W/m2 CLR
18:50 32.1 °F 21.9 °F 1010.7 in East 11.1 mph 11.1 mph 55 % 0.0 in 153.0 W/m2 CLR
18:55 31.9 °F 21.7 °F 1010.7 in East 11.1 mph 11.1 mph 55 % 0.0 in 153.0 W/m2 CLR
19:00 31.7 °F 21.5 °F 1010.7 in ESE 14.8 mph 14.8 mph 55 % 0.0 in 153.0 W/m2 CLR
19:05 31.6 °F 21.7 °F 1010.7 in ESE 13.0 mph 13.0 mph 56 % 0.0 in 144.0 W/m2 CLR
19:10 31.6 °F 21.7 °F 1010.7 in SE 18.5 mph 18.5 mph 56 % 0.0 in 334.0 W/m2 CLR
19:15 31.5 °F 21.7 °F 1010.7 in ESE 18.5 mph 18.5 mph 56 % 0.0 in 336.0 W/m2 CLR
19:20 31.6 °F 21.8 °F 1010.7 in ESE 20.4 mph 20.4 mph 56 % 0.0 in 327.0 W/m2 CLR
19:25 31.4 °F 21.9 °F 1010.7 in ESE 16.1 mph 16.1 mph 57 % 0.0 in 306.0 W/m2 CLR
19:30 31.4 °F 21.8 °F 1010.7 in ESE 13.0 mph 13.0 mph 57 % 0.0 in 262.0 W/m2 CLR
19:35 31.4 °F 21.8 °F 1010.7 in ESE 16.7 mph 16.7 mph 57 % 0.0 in 243.0 W/m2 CLR
19:40 31.4 °F 21.8 °F 1010.7 in SE 11.1 mph 11.1 mph 57 % 0.0 in 83.0 W/m2 CLR
19:45 31.3 °F 22.0 °F 1011.1 in East 5.6 mph 5.8 mph 58 % 0.0 in 70.0 W/m2 CLR
19:50 31.1 °F 21.9 °F 1011.1 in ENE 8.0 mph 8.0 mph 58 % 0.0 in 69.0 W/m2 CLR
19:55 31.0 °F 22.1 °F 1010.7 in East 5.6 mph 5.6 mph 59 % 0.0 in 148.0 W/m2 FEW
20:00 30.9 °F 22.0 °F 1010.7 in East 7.4 mph 7.4 mph 59 % 0.0 in 149.0 W/m2 CLR
20:05 30.9 °F 22.2 °F 1010.7 in Calm   0.5 mph 60 % 0.0 in 160.0 W/m2 CLR
20:10 30.9 °F 21.9 °F 1010.7 in ENE 6.4 mph 6.4 mph 59 % 0.0 in 144.0 W/m2 CLR
20:15 30.9 °F 22.2 °F 1010.7 in ENE 5.6 mph 5.6 mph 60 % 0.0 in 130.0 W/m2 CLR
20:20 30.8 °F 22.1 °F 1010.7 in NNE 5.6 mph   60 % 0.0 in 113.0 W/m2 CLR
20:25 30.7 °F 22.1 °F 1010.7 in ENE 3.7 mph 4.5 mph 60 % 0.0 in 98.0 W/m2 CLR
20:30 30.7 °F 22.0 °F 1010.7 in NE 9.3 mph 9.3 mph 60 % 0.0 in 83.0 W/m2 FEW
20:35 30.5 °F 22.1 °F 1010.7 in NE 7.4 mph   61 % 0.0 in 56.0 W/m2 SCT
20:40 30.3 °F 21.9 °F 1011.1 in Calm     61 % 0.0 in 40.0 W/m2 BKN
20:45 30.1 °F 22.0 °F 1011.1 in Calm     62 % 0.0 in 33.0 W/m2 BKN
20:50 30.0 °F 21.9 °F 1011.1 in Calm     62 % 0.0 in 25.0 W/m2 BKN
20:55 29.8 °F 22.1 °F 1011.1 in Calm     63 % 0.0 in 19.0 W/m2 BKN
21:00 29.6 °F 21.8 °F 1011.1 in Calm     63 % 0.0 in 14.0 W/m2 BKN
21:05 29.4 °F 21.6 °F 1011.4 in Calm     63 % 0.0 in 11.0 W/m2 BKN
21:10 29.2 °F 21.7 °F 1011.4 in Calm     64 % 0.0 in 7.0 W/m2 BKN
21:15 29.1 °F 21.8 °F 1011.4 in Calm     65 % 0.0 in 5.0 W/m2 OVC
21:20 28.8 °F 21.6 °F 1011.4 in Calm     65 % 0.0 in 0.0 W/m2 OVC
21:25 28.6 °F 21.6 °F 1011.4 in NE 4.8 mph 4.8 mph 66 % 0.0 in 0.0 W/m2 OVC
21:30 28.3 °F 21.6 °F 1011.4 in ENE 7.4 mph 7.4 mph 67 % 0.0 in 0.0 W/m2 CLR
21:35 28.1 °F 21.3 °F 1011.4 in Calm     67 % 0.0 in 0.0 W/m2 CLR
21:41 27.9 °F 21.4 °F 1011.7 in NE 8.0 mph 8.0 mph 68 % 0.0 in 0.0 W/m2 CLR
21:46 27.8 °F 21.4 °F 1011.7 in NE 1.9 mph   68 % 0.0 in 0.0 W/m2 CLR
21:51 27.7 °F 21.5 °F 1011.7 in Calm     69 % 0.0 in 0.0 W/m2 CLR
21:56 27.6 °F 21.4 °F 1011.7 in Calm     69 % 0.0 in 0.0 W/m2 CLR
22:01 27.5 °F 21.3 °F 1011.7 in Calm     69 % 0.0 in 0.0 W/m2 CLR
22:06 27.4 °F 21.2 °F 1011.7 in Calm     69 % 0.0 in 0.0 W/m2 CLR
22:11 27.3 °F 21.4 °F 1011.7 in Calm     70 % 0.0 in 0.0 W/m2 CLR
22:16 27.3 °F 21.3 °F 1011.7 in Calm     70 % 0.0 in 0.0 W/m2 CLR
22:21 27.2 °F 21.3 °F 1011.7 in Calm     70 % 0.0 in 0.0 W/m2 CLR
22:26 27.1 °F 21.2 °F 1011.7 in Calm     70 % 0.0 in 0.0 W/m2 CLR
22:31 27.0 °F 21.3 °F 1011.7 in Calm     71 % 0.0 in 0.0 W/m2 CLR
22:36 26.9 °F 21.2 °F 1011.7 in Calm     71 % 0.0 in 0.0 W/m2 CLR
22:41 26.8 °F 21.1 °F 1011.7 in Calm     71 % 0.0 in 0.0 W/m2 CLR
22:46 26.7 °F 21.3 °F 1011.7 in Calm     72 % 0.0 in 0.0 W/m2 CLR
22:51 26.8 °F 21.3 °F 1011.7 in Calm     72 % 0.0 in 0.0 W/m2 CLR
22:56 26.8 °F 21.1 °F 1011.7 in Calm     71 % 0.0 in 0.0 W/m2 CLR
23:01 26.9 °F 21.2 °F 1011.7 in Calm     71 % 0.0 in 0.0 W/m2 CLR
23:06 26.8 °F 21.1 °F 1011.7 in Calm     71 % 0.0 in 0.0 W/m2 CLR
23:11 26.6 °F 21.2 °F 1011.7 in Calm     72 % 0.0 in 0.0 W/m2 CLR
23:16 26.5 °F 21.1 °F 1011.7 in Calm     72 % 0.0 in 0.0 W/m2 CLR
23:21 26.4 °F 21.2 °F 1011.7 in ENE 1.9 mph   73 % 0.0 in 0.0 W/m2 CLR
23:26 26.4 °F 21.2 °F 1011.7 in Calm     73 % 0.0 in 0.0 W/m2 CLR
23:31 26.3 °F 21.1 °F 1011.4 in Calm     73 % 0.0 in 0.0 W/m2 CLR
23:36 26.2 °F 21.0 °F 1011.7 in Calm     73 % 0.0 in 0.0 W/m2 CLR
23:41 26.1 °F 21.1 °F 1011.7 in Calm     74 % 0.0 in 0.0 W/m2 CLR
23:46 26.1 °F 21.1 °F 1011.7 in Calm     74 % 0.0 in 0.0 W/m2 CLR
23:51 26.1 °F 20.9 °F 1011.7 in Calm     73 % 0.0 in 0.0 W/m2 CLR
23:56 26.2 °F 20.9 °F 1011.7 in Calm     73 % 0.0 in 0.0 W/m2 CLR
Lo Temps de Massalio
Compliments of Weather Underground - 1.25 mb